[[{"header":{"parameterUnit":"m.s-1","parameterCategory":1,"la1":30.2991,"la2":30.254,"lo1":-89.0895,"lo2":-89.0444,"dy":0.0017,"dx":0.0017,"nx":28,"ny":28,"refTime":"2023-08-06T09:00:00:Z","depth":0,"parameterNumber":2,"parameterNumberName":"U-component_of_WINDS"},"data":[0,0,0,0,0,0,0,0,0,0,0,0,0,0,0,0,0,0,0,0,0,0,0,0,0,0,0,0,0,0,0,0,0,0,0,0,0,0,0,0,0,0,0,0,0,0,0,0,0,0,0,0,0,0,0,0,0,0,3.573,3.5731,0,3.5816,3.5817,3.5818,3.5735,3.5732,3.5728,3.5725,3.5816,3.5821,3.5827,0,0,0,0,0,0,0,0,0,0,0,0,0,3.5493,3.5498,3.573,3.5731,3.5732,3.5815,3.5817,3.5818,3.5735,3.5731,3.5727,3.5724,3.5814,3.582,3.5827,0,0,0,0,0,0,0,0,0,0,0,0,0,3.5589,3.55,3.5729,3.5701,3.5699,3.5815,3.5817,3.5818,3.5736,3.5731,3.5726,3.5722,3.5812,3.582,3.5828,3.5978,0,0,3.5853,3.5857,0,0,0,0,0,0,0,0,3.5584,3.5598,3.5704,3.5703,3.5701,3.5759,3.5766,3.5872,3.5738,3.5722,3.5725,3.5719,3.5801,3.581,3.5837,3.5982,3.5986,3.5854,3.5859,3.5862,3.5865,0,0,0,0,0,0,0,3.5578,3.5594,3.5764,3.5705,3.5704,3.5683,3.5691,3.5786,3.5789,3.5723,3.5717,3.5729,3.58,3.5829,3.5839,3.5987,3.5854,3.5861,3.5866,3.5869,3.6254,3.626,0,0,0,0,0,0,3.5574,3.5589,3.5761,3.5766,3.5629,3.5692,3.5701,3.5746,3.5787,3.5789,3.5733,3.5724,3.5818,3.5829,3.5841,3.6016,3.5862,3.587,3.5875,3.6249,3.6256,3.6261,0,0,0,0,0,0,3.5569,3.559,3.5757,3.5676,3.5696,3.5701,3.5752,3.575,3.578,3.5794,3.5794,3.5763,3.5814,3.583,3.5943,3.6018,3.5874,3.5881,3.6243,3.6251,3.6259,3.6369,0,0,0,0,0,0,3.5563,3.5589,3.5646,3.5678,3.57,3.5858,3.5757,3.5755,3.5794,3.5784,3.5823,3.5824,3.5812,3.5931,3.5951,3.6027,3.5888,3.6236,3.6247,3.6256,3.6358,3.638,3.6398,0,0,0,0,0,3.5555,3.5675,3.565,3.5671,3.5772,3.5863,3.5876,3.5858,3.58,3.5857,3.5866,3.5823,3.6007,3.5944,3.5966,3.6045,3.6231,3.6244,3.6255,3.635,3.6375,3.6397,0,0,0,0,0,0,3.5654,3.5679,3.5651,3.5786,3.5822,3.5849,3.592,3.5886,3.5941,3.593,3.5906,3.5916,3.6035,3.6051,3.598,3.6189,3.611,3.6127,3.6174,3.6199,3.6218,3.6211,3.5894,0,0,0,0,0,3.5692,3.5763,3.5781,3.5898,3.5918,3.5916,3.5955,3.5938,3.5975,3.5991,3.6008,3.6047,3.6112,3.6157,3.6219,3.6361,3.6366,3.6426,3.6445,3.6461,3.6476,3.6548,3.6573,3.6301,3.63,3.63,0,0,3.577,3.5792,3.5839,3.5918,3.5945,3.6018,3.593,3.6013,3.6066,3.6004,3.611,3.6125,3.6166,3.6293,3.635,3.631,3.6552,3.6476,3.6489,3.6495,3.6563,3.6589,3.6611,3.6309,3.6307,3.6306,0,0,3.595,3.5975,3.6073,3.6101,3.6141,3.6139,3.6162,3.6193,3.6199,3.6306,3.6259,3.6323,3.6439,3.6468,3.6499,3.6686,3.6647,3.6707,3.6809,3.688,3.6901,3.692,3.6984,3.7007,3.6722,3.6722,3.6722,0,3.6042,3.6151,3.6128,3.6213,3.6248,3.6193,3.6291,3.6319,3.6379,3.6404,3.6358,3.6499,3.6523,3.6654,3.67,3.6727,3.6752,3.6702,3.69,3.6918,3.6936,3.6996,3.702,3.6729,3.6728,3.6727,3.6727,0,3.626,3.6336,3.6411,3.6467,3.651,3.6602,3.6592,3.6639,3.6617,3.6619,3.6727,3.6753,3.6818,3.6848,3.6829,3.6976,3.695,3.6903,3.6822,3.6969,3.7025,3.7048,3.6738,3.6736,3.6734,3.6732,0,0,3.6506,3.6546,3.6574,3.6597,3.6636,3.6694,3.6782,3.6843,3.6882,3.6925,3.6996,3.7093,3.7048,3.7083,3.7066,3.7129,3.7271,3.7073,3.7074,3.7107,3.7431,3.7464,3.7491,3.7246,3.725,3.7254,3.7426,0,3.6684,3.6835,3.6816,3.6961,3.7029,3.6976,3.7052,3.7084,3.7087,3.7145,3.7149,3.7217,3.7155,3.7174,3.7234,3.7241,3.7335,3.7229,3.731,3.7314,3.7299,3.7521,3.7558,3.7719,3.7448,3.7452,3.7455,0,3.6913,3.696,3.7111,3.7136,3.7164,3.7232,3.7285,3.7342,3.7376,3.7373,3.741,3.7382,3.7468,3.7386,3.7504,3.7432,3.7464,3.7472,3.7478,3.7483,3.7392,3.753,3.777,3.7794,3.749,3.7487,3.7484,0,3.7073,3.7175,3.7277,3.7299,3.7332,3.738,3.7396,3.7425,3.7462,3.7508,3.7531,3.7588,3.7619,3.7663,3.765,3.7592,3.7769,3.7687,3.7768,3.7768,3.7807,3.7804,3.8053,3.7832,3.7832,3.7831,3.7831,0,3.7272,3.7366,3.7349,3.7411,3.7514,3.749,3.7592,3.7602,3.7627,3.769,3.7649,3.7709,3.7689,3.7747,3.7738,3.7834,3.785,3.7849,3.7845,3.7852,3.7851,3.7871,3.7859,3.7837,3.7836,3.7835,3.7834,0,3.7468,3.7461,3.7568,3.7589,3.7596,3.767,3.7688,3.7746,3.7745,3.7825,3.7842,3.7842,3.7908,3.7899,3.7974,3.7967,3.8087,3.8071,3.8075,3.807,3.8151,3.8142,3.8419,3.8453,3.8213,3.8215,3.8217,0,3.7595,3.7665,3.7692,3.773,3.7749,3.7812,3.7848,3.7828,3.7867,3.7909,3.7962,3.8024,3.8073,3.8181,3.8187,3.8243,3.8226,3.8319,3.8234,3.8237,3.8224,3.8219,3.8224,3.8336,3.8338,3.8341,3.8342,0,3.7819,3.7811,3.7865,3.7917,3.7961,3.8001,3.8037,3.8071,3.8053,3.81,3.8166,3.8203,3.8277,3.8339,3.8391,3.8407,3.8371,3.8369,3.839,3.8396,3.8395,3.8393,3.8118,3.8363,3.8361,3.8359,3.8358,3.8357,3.7982,3.804,3.8068,3.8128,3.8152,3.8186,3.824,3.8245,3.83,3.8358,3.8342,3.8417,3.8446,3.8512,3.8533,3.859,3.8556,3.8588,3.8595,3.8603,3.861,3.8387,3.86,3.8599,3.8599,3.8598,3.8598,0,3.8202,3.8216,3.8271,3.8322,3.8368,3.833,3.8367,3.8409,3.8474,3.8504,3.8551,3.8626,3.8684,3.8694,3.8749,3.8793,3.8778,3.8808,3.8803,3.8807,3.864,3.8614,3.8819,3.8819,3.8819,3.8819,3.8819,3.8819,3.8321,3.8416,3.8411,3.8517,3.8531,3.8602,3.8626,3.8656,3.8679,3.8764,3.8811,3.8817,3.8838,3.8894,3.8945,3.8946,3.8967,3.9003,3.8998,3.8841,3.8819,3.8798,3.8774,3.9009,3.9009,3.916,3.9162,3.9163]},{"header":{"parameterUnit":"m.s-1","parameterCategory":1,"la1":30.2991,"la2":30.254,"lo1":-89.0895,"lo2":-89.0444,"dy":0.0017,"dx":0.0017,"nx":28,"ny":28,"refTime":"2023-08-06T09:00:00:Z","depth":0,"parameterNumber":3,"parameterNumberName":"V-component_of_WINDS"},"data":[0,0,0,0,0,0,0,0,0,0,0,0,0,0,0,0,0,0,0,0,0,0,0,0,0,0,0,0,0,0,0,0,0,0,0,0,0,0,0,0,0,0,0,0,0,0,0,0,0,0,0,0,0,0,0,0,0,0,6.3063,6.3064,0,6.3133,6.3134,6.3135,6.3082,6.3079,6.3077,6.3075,6.3141,6.3144,6.3148,0,0,0,0,0,0,0,0,0,0,0,0,0,6.2876,6.288,6.3063,6.3064,6.3065,6.3133,6.3134,6.3135,6.3082,6.3079,6.3076,6.3074,6.3139,6.3144,6.3149,0,0,0,0,0,0,0,0,0,0,0,0,0,6.2953,6.2881,6.3063,6.3047,6.3046,6.3133,6.3134,6.3135,6.3083,6.3079,6.3076,6.3072,6.3138,6.3144,6.3149,6.3254,0,0,6.3167,6.317,0,0,0,0,0,0,0,0,6.2949,6.296,6.3048,6.3048,6.3047,6.3095,6.3092,6.3175,6.3083,6.3069,6.3075,6.3071,6.3128,6.3134,6.3155,6.3257,6.326,6.3168,6.3171,6.3174,6.3175,0,0,0,0,0,0,0,6.2943,6.2956,6.3091,6.305,6.3049,6.3034,6.3041,6.3108,6.3116,6.307,6.3066,6.3075,6.3127,6.3149,6.3156,6.3261,6.3168,6.3173,6.3176,6.3179,6.3448,6.3452,0,0,0,0,0,0,6.294,6.2952,6.3088,6.3093,6.2989,6.304,6.3048,6.3083,6.3116,6.3117,6.3078,6.3072,6.3141,6.3149,6.3158,6.328,6.3174,6.3179,6.3182,6.3445,6.3449,6.3453,0,0,0,0,0,0,6.2937,6.2953,6.3086,6.3022,6.3037,6.3047,6.3087,6.3086,6.3109,6.3122,6.3123,6.31,6.3139,6.315,6.323,6.3281,6.3182,6.3187,6.344,6.3446,6.3451,6.3526,0,0,0,0,0,0,6.2932,6.2952,6.2994,6.3023,6.3041,6.3159,6.309,6.309,6.312,6.3113,6.3143,6.3144,6.3137,6.3222,6.3236,6.3288,6.3192,6.3436,6.3443,6.3449,6.3519,6.3534,6.3546,0,0,0,0,0,6.2925,6.3012,6.2996,6.3013,6.3094,6.3162,6.3172,6.3164,6.3124,6.3165,6.3173,6.3143,6.3274,6.323,6.3246,6.33,6.3432,6.3441,6.3449,6.3513,6.3531,6.3546,0,0,0,0,0,0,6.2987,6.3016,6.2999,6.3098,6.3128,6.3153,6.3204,6.3183,6.3224,6.3215,6.3201,6.3208,6.3292,6.3304,6.3255,6.3401,6.3346,6.3358,6.339,6.3407,6.342,6.3414,6.3196,0,0,0,0,0,6.3013,6.3068,6.3089,6.3174,6.3191,6.3195,6.3224,6.3215,6.3245,6.3257,6.3271,6.3299,6.3346,6.3378,6.3422,6.3521,6.3525,6.3566,6.3579,6.359,6.36,6.3649,6.3667,6.348,6.348,6.348,0,0,6.3066,6.3088,6.3123,6.3188,6.321,6.3264,6.3206,6.3267,6.3306,6.3266,6.3342,6.3353,6.3383,6.3473,6.3513,6.3486,6.3652,6.3601,6.361,6.3613,6.366,6.3677,6.3693,6.3486,6.3485,6.3484,0,0,6.3189,6.3213,6.3285,6.3309,6.3344,6.3346,6.3363,6.3391,6.3397,6.3474,6.3443,6.3489,6.3572,6.3593,6.3615,6.3745,6.3718,6.376,6.3829,6.3878,6.3892,6.3905,6.3948,6.3964,6.377,6.377,6.377,0,6.325,6.3333,6.3325,6.3388,6.3415,6.3382,6.3453,6.3476,6.3522,6.3541,6.351,6.3611,6.363,6.3722,6.3753,6.3774,6.379,6.3756,6.3891,6.3904,6.3916,6.3957,6.3973,6.3775,6.3774,6.3774,6.3773,0,6.3404,6.3462,6.3516,6.3563,6.3596,6.3663,6.3662,6.3697,6.3684,6.3688,6.3765,6.3786,6.3832,6.3854,6.3842,6.3944,6.3925,6.3894,6.3838,6.3939,6.3976,6.3992,6.3781,6.378,6.3778,6.3777,0,0,6.3568,6.3609,6.3629,6.3648,6.3683,6.3727,6.379,6.3837,6.3865,6.3899,6.3949,6.4019,6.3989,6.4014,6.4004,6.4048,6.4145,6.401,6.401,6.4032,6.4254,6.4275,6.4294,6.4128,6.4131,6.4134,6.425,0,6.3691,6.3804,6.3797,6.3902,6.3953,6.3922,6.3976,6.4002,6.4008,6.405,6.4055,6.4104,6.4062,6.4077,6.4118,6.4124,6.4189,6.4116,6.4172,6.4174,6.4163,6.4314,6.4338,6.4447,6.4265,6.4268,6.427,0,6.3849,6.3888,6.3999,6.4023,6.4045,6.4095,6.4135,6.4177,6.4205,6.4205,6.4233,6.4215,6.4276,6.4221,6.4303,6.4253,6.4276,6.4282,6.4286,6.4288,6.4226,6.4318,6.4482,6.4497,6.4293,6.4292,6.429,0,6.3954,6.4034,6.4109,6.4128,6.416,6.4194,6.4209,6.4233,6.4261,6.4296,6.4313,6.4355,6.4377,6.4408,6.4401,6.4362,6.4483,6.4428,6.4483,6.4483,6.4508,6.4506,6.4675,6.4527,6.4527,6.4527,6.4526,0,6.409,6.4158,6.4157,6.4203,6.4276,6.4267,6.4339,6.435,6.4371,6.4416,6.4392,6.4434,6.4424,6.4465,6.446,6.4527,6.4538,6.4538,6.4535,6.4538,6.4538,6.4551,6.4542,6.4531,6.453,6.4529,6.4529,0,6.4219,6.4221,6.4301,6.4324,6.4331,6.4384,6.4403,6.4445,6.4448,6.4506,6.4518,6.4523,6.457,6.4567,6.462,6.4616,6.4698,6.4688,6.4689,6.4685,6.4739,6.4733,6.492,6.4942,6.4783,6.4785,6.4786,0,6.4304,6.4355,6.4384,6.4413,6.443,6.4478,6.4506,6.4498,6.4528,6.4562,6.4599,6.4644,6.468,6.4756,6.4763,6.4802,6.4791,6.4854,6.4797,6.4797,6.4788,6.4784,6.4787,6.4864,6.4866,6.4867,6.4869,0,6.4454,6.4452,6.4495,6.4537,6.4571,6.4604,6.4633,6.4658,6.4653,6.4687,6.4736,6.4763,6.4817,6.4861,6.4899,6.4911,6.4888,6.4887,6.4901,6.4903,6.4901,6.49,6.4716,6.4882,6.4881,6.488,6.4879,6.4878,6.4561,6.4604,6.4631,6.4678,6.4699,6.4727,6.4767,6.4775,6.4816,6.486,6.4853,6.4906,6.4929,6.4978,6.4994,6.5034,6.5011,6.5032,6.5037,6.5041,6.5046,6.4897,6.5041,6.504,6.504,6.504,6.5039,0,6.4707,6.4722,6.4766,6.4808,6.4844,6.4822,6.4853,6.4884,6.4932,6.4957,6.4992,6.5046,6.5088,6.5098,6.5138,6.5168,6.5158,6.5178,6.5174,6.5177,6.5066,6.5048,6.5185,6.5185,6.5185,6.5185,6.5185,6.5185,6.4787,6.4857,6.4858,6.4938,6.4952,6.5006,6.5025,6.5049,6.5068,6.513,6.5166,6.5172,6.519,6.5231,6.5267,6.5269,6.5283,6.5307,6.5304,6.52,6.5185,6.5171,6.5154,6.5311,6.5311,6.5411,6.5412,6.5412]}]]